CAPE
1151 1840 2340 2328 2084 1920 2373 2031 2054 2199 2255 2131 2304 2428 2286 2402 2713 2324 2395 2079 896 1230 1084 1059 1236 958 819 952 1392 1440 1437 1402 2046 1778 2173 2404 2126 2586 2730 3031 2817 2970 2895 3262 3467 3891 4076 4140 4268 4101 4304 4404 4400 4515 4644 4681 4746 4748 4818 4846 4954 5101 5169 5254 5318 5275 5281 5221 5184 5294 5387 5287 5196 5178 5068 4820 4701 4586 4577 4559 4520 4469 4432 4438 4350
1899 2491 2528 2216 2066 2025 1984 2125 2298 2215 2094 2244 2469 2389 2568 2563 2612 2591 2468 1631 1258 1936 1582 877 551 1001 1099 939 825 1036 1288 1386 1324 1564 1539 1769 1822 2045 2903 2931 3221 3211 3347 3472 3669 4102 4251 4147 4126 4314 4393 4573 4640 4776 4986 5080 5157 5201 5128 5139 5188 5224 5337 5414 5392 5462 5402 5360 5462 5487 5476 5460 5399 5462 5356 5121 4997 4939 4836 4789 4756 4614 4379 4263 4187
2550 2647 2612 2394 2080 1655 1996 2184 2244 2299 2005 2127 2358 2642 2523 2602 2875 2789 2672 2391 2030 1871 816 1155 1033 903 755 628 993 808 774 1000 803 774 1019 1481 1702 2310 2231 3414 2950 3349 3648 3792 4160 4288 4418 4470 4655 4902 4927 5018 5170 5122 5171 5167 5186 5224 5260 5261 5314 5371 5368 5438 5565 5610 5543 5652 5676 5668 5667 5691 5553 5506 5355 5331 5248 5189 4998 4888 4772 4714 4349 4114 3935
2895 2593 2562 2312 2168 2067 1850 1999 2228 2494 2466 2154 2784 2933 2908 2666 2376 2633 2444 2018 1249 1607 1744 943 761 690 1150 807 680 888 1099 918 726 734 442 739 1085 787 2598 2849 3260 3635 3830 4149 4306 4378 4480 4504 4863 4943 4859 4952 5134 5134 5085 5132 5215 5296 5454 5370 5492 5408 5439 5429 5453 5436 5559 5570 5653 5802 5768 5698 5635 5490 5577 5565 5513 5412 5302 5197 5109 4981 4736 4598 4392
3794 2998 2822 2483 2380 2306 2422 2485 2625 2495 2638 2733 2944 3115 2702 2447 1996 2256 2761 1834 1187 1395 1080 857 1159 1255 730 637 250 428 600 1027 814 503 331 535 826 666 822 753 3373 4129 3975 4390 4190 4122 4126 4494 4420 4476 4983 5061 5022 5125 5242 5205 5787 5870 5750 5713 5470 5351 5268 5326 5473 5587 5560 5490 5645 5820 5980 6003 5918 5827 5793 5782 5689 5530 5558 5513 5402 5260 5124 4932 4834
3454 3485 3479 2366 2700 2676 2518 2726 2689 2525 2368 3166 2775 2738 2521 2893 2573 1927 1792 1365 1913 1793 1268 716 680 1112 599 995 738 809 797 656 224 606 879 620 300 885 1401 1445 2671 1977 2946 4527 4243 4444 4727 4471 4832 5128 5145 4934 5054 5308 5366 5410 5835 6012 5827 5702 5714 5843 5621 5644 5739 5818 5737 5600 5533 5515 5532 5822 6021 5998 5871 5875 5488 5237 5184 5184 5142 5098 5012 4927 4698
3796 4525 2594 2322 2324 2699 2758 2754 2850 3204 2407 2546 2929 2602 3020 2777 2440 2153 1891 1653 1584 1240 1370 824 262 556 1140 1260 1015 864 717 567 313 162 453 446 440 186 1082 862 439 2026 1422 3417 4537 3304 4347 4953 5008 5071 5253 5048 5288 5120 5851 6012 5800 6066 5972 5853 5972 5974 5970 5730 5888 5641 5497 5429 5361 5299 5254 5238 5292 5822 5916 5771 5729 5474 5339 5232 5103 5018 4936 4702 4252
4467 3824 2977 2266 2190 2544 2952 2522 2787 3006 2681 2692 3264 2716 2838 2639 2923 2518 2401 1490 1443 1174 791 897 562 442 506 402 382 695 389 689 834 440 364 416 532 630 647 573 696 1680 1099 772 1178 2675 3797 4462 4443 4875 5455 5336 5243 5573 6071 5974 5737 5685 5757 5848 5944 5965 5941 5945 5844 5564 5485 5664 5847 5662 6023 5907 5898 5988 6009 5814 5581 5378 5244 5146 5081 4942 4621 4398 4056
3815 3828 3801 2028 2197 2289 2116 2238 3100 2994 3185 2420 2831 2723 2984 2055 2200 2704 2930 2721 986 940 1234 1078 588 513 536 403 737 704 434 840 558 405 140 176 674 410 503 534 740 1514 2653 1308 1338 1076 3575 3279 4970 4545 4911 5338 5238 5986 5978 5484 5285 5428 5640 5659 5459 5630 5606 5581 5828 5378 5318 5782 5782 5630 5772 6074 5773 5630 5649 5665 5602 5496 5351 5183 4964 4706 4296 4103 4001
3895 3642 4570 2743 2636 2850 3064 3079 2941 2923 3194 2886 3238 3002 2930 2918 1996 2154 2539 2782 1676 1324 1341 1168 603 518 355 397 457 252 510 305 235 247 303 192 275 103 483 470 719 619 469 252 511 1006 1026 4041 2484 2864 3108 4080 4726 4956 4529 4815 5333 5406 5848 6111 6235 5925 5543 5271 5101 5021 5305 5239 5446 5749 5724 5396 5306 5303 5403 5565 5586 5450 5236 4999 4837 4334 3973 3767 3820
3466 3330 4310 2565 2741 3371 3382 3179 2758 2778 3578 2882 2638 2898 3519 2330 2864 2890 2609 1681 1943 1141 1151 1515 734 721 462 274 630 932 644 228 692 419 451 299 253 631 440 556 403 735 488 554 668 970 1369 1111 1407 1660 1292 2639 4692 5210 5136 4495 4368 4638 4553 5172 5694 5612 5166 5271 5224 5022 5153 5516 5642 5634 5273 5097 5010 5021 5357 5327 5293 5168 5027 4912 4503 3997 3551 3593 3598
4026 3802 4056 3706 2947 3410 3987 3725 3052 2896 3602 3292 3598 2959 3078 2656 2138 2524 2938 2289 1321 1872 1420 1612 678 654 520 354 448 560 898 393 753 643 404 434 168 334 630 455 578 401 638 544 478 335 695 1507 2064 1771 2191 2416 3066 4868 5981 5005 5067 5704 5642 5669 5729 5397 5346 5640 5103 5436 5326 5667 5495 5358 4919 4780 4769 4990 5233 5277 5061 5034 4992 4744 4171 3660 3396 3475 3254
4059 4704 3408 3246 3760 3953 4239 3942 3607 3307 3452 3631 3106 3183 3354 3774 2498 3014 2202 1804 1826 1465 448 786 1003 640 962 677 624 647 558 614 749 991 627 504 407 306 445 744 1288 1392 936 583 566 540 917 2234 1862 2000 2379 2753 2791 3408 2765 3474 4391 4182 5078 5375 5060 5223 5409 5309 5531 5516 5809 5864 5553 5126 4620 4423 4740 5049 5238 5183 5043 4936 4844 4456 3907 3368 3304 3443 2904
4604 4593 4365 4071 3832 3751 4162 4275 4136 3076 3121 2983 3271 3531 3330 3246 2582 3276 2657 2215 2234 1317 661 2336 2075 1577 1522 869 1086 658 576 448 501 434 413 488 423 420 317 902 1300 1083 986 598 1651 2251 1360 1814 2082 1439 1797 2027 2110 2541 4152 3380 2685 3518 3571 4416 5149 4870 4783 5030 5245 5473 5818 5651 5387 4970 4634 4470 4944 4956 4964 5197 5022 4885 4657 4058 3685 3133 3340 3118 2344
4103 3684 3734 3904 3710 3883 3502 3938 3798 2916 3282 3872 2647 2877 2715 2473 3068 1758 2271 2339 2102 1572 1619 1248 2138 667 890 2381 1209 1517 826 672 629 595 240 436 582 725 352 83 1496 1585 397 184 1265 1703 1030 851 1081 1340 2046 2161 2198 2479 3270 3152 2655 3831 3985 4329 4124 4179 4732 4835 5196 5453 5438 5314 5144 4916 4554 4708 4902 4884 4983 5199 5165 4826 4065 3895 3468 3085 3303 2703 2280
3327 3128 3128 3893 3812 4304 3446 3547 3487 3094 3350 3450 2887 2803 2122 3370 1962 2031 2065 2584 2222 2260 1780 1449 895 2103 2957 1592 953 1708 1683 2583 1711 1504 692 863 1102 2331 1235 242 107 556 569 431 886 1128 1700 867 1567 1950 2254 2719 3375 3234 2992 2823 2854 3899 4150 4691 3699 3686 4646 4608 4719 4779 4938 4804 4838 4682 4474 4700 4958 5020 4868 4922 4964 4608 3782 3700 3393 3052 3220 2485 2058
3091 3466 3315 3888 4060 4425 4257 3831 3764 3405 2622 2780 2728 3320 2739 2758 1903 3882 3468 1603 1068 1763 2235 1920 1312 1053 1635 2880 1920 2033 2151 1601 741 2162 1126 976 424 591 1085 1217 957 1080 685 586 649 1023 609 1037 986 666 2232 2489 2463 2275 2478 2140 3018 3468 3937 4534 3258 4124 4356 4376 4234 4168 4349 4278 4242 4356 4459 4756 4850 4844 4727 4478 4514 4150 3658 3662 3282 3162 2886 2271 1918
3673 3664 3544 2833 3736 4009 4205 4161 3833 2632 2930 3600 3388 2016 1320 3404 2653 2585 3072 1622 1678 1014 1867 1921 1129 1445 1258 1534 1420 1713 2016 1517 1092 2998 2640 2051 884 724 961 699 1101 551 1350 1118 755 1579 2416 1088 1671 1324 1716 2034 2311 2679 2559 2267 3523 3140 3430 4927 3502 3945 3953 3793 3759 3702 4140 4047 4252 4286 4712 4724 4725 4771 4550 4414 4108 3582 3414 3494 3174 3092 2294 2113 1570
3046 3638 3663 4164 4599 4282 4024 3708 3379 3354 2695 2448 2772 2200 1773 2423 2989 3212 2899 2305 3500 2259 2028 1944 1599 1911 1445 1360 1302 1139 1539 1448 1729 1915 2692 2797 1845 776 350 667 616 545 1292 649 920 2119 1820 1507 2279 1197 2400 2295 2315 2694 2154 1886 2348 3579 3438 3471 3570 3812 3580 3368 3239 3299 3524 3683 4032 4194 4416 4432 4487 4598 4334 4317 3963 3241 3161 3358 3257 2593 2051 1816 889
3346 4325 3846 3459 4296 4106 3979 4087 3594 3650 2866 3223 2949 2562 2962 3920 2546 3082 2500 2682 2937 3949 2099 2331 1402 2938 1415 1202 1569 2130 1434 856 1770 1204 1307 1651 1478 980 828 526 1377 463 760 853 874 833 1319 1564 1639 1196 2715 3068 2928 2230 1847 2183 2862 3546 3381 2942 3416 3429 3521 3177 3040 3244 3317 3492 3704 3712 3990 4106 4255 4193 3944 3942 3950 3299 3429 3320 3251 2226 1971 1616 747
3664 2941 3529 4177 3064 4365 4052 4382 3638 3826 1971 2525 2563 2775 3046 3520 3452 2880 3997 3922 4020 2662 2709 3306 1705 2069 2069 2726 1801 1215 1497 1245 1596 1706 1945 1500 1527 1071 1031 811 1031 1017 1144 775 810 869 1006 1409 1962 2414 3660 3202 2629 2502 2284 2925 2972 3536 2738 2808 3020 3313 3294 3078 2959 3143 2981 3017 3419 3554 3728 3826 3843 3770 3656 3594 3630 3408 3040 3390 3193 2118 1748 1189 565
2323 3506 3602 3852 3463 3964 3674 3275 2944 3337 2353 3253 3038 2022 2326 2761 2337 3217 3556 2833 2909 2801 3054 2753 2302 1928 1596 2577 2278 1743 1838 1649 1039 1126 1267 1193 1260 1350 893 555 1016 1124 874 1523 1526 804 1747 1277 1620 2177 2197 2993 1880 2627 2324 2483 3301 2040 2429 1896 2844 2862 3497 2809 2637 2827 2547 2588 2848 3213 3431 3337 3368 3288 3273 3238 3287 3294 2715 3275 3152 1983 1604 972 722
2584 2033 3099 2602 3228 3708 3580 3270 2794 3218 2187 3420 2434 2760 3124 2731 2846 2967 3600 3732 3632 3196 2140 2594 2954 3234 2268 1989 2582 1245 1250 1629 1448 1805 1667 1071 1212 991 566 494 850 760 1089 1102 1482 1358 1274 1481 2174 2321 2746 2245 1990 1852 2134 3094 2682 3045 1738 1854 1805 2765 2338 2787 2615 2398 2391 2050 2475 2801 2880 2753 2899 3110 3091 3012 3128 3098 2976 3338 3108 1960 1472 942 766
2880 2873 2320 2497 3198 3143 3267 3527 3175 3169 3387 2831 3340 2946 2410 2140 2397 3060 3220 3663 3333 3103 3013 1643 1178 1857 2517 1890 1747 1565 1217 1425 850 1412 1384 1474 1280 960 662 1050 1134 809 753 1600 1000 1180 1533 1508 1257 1465 1581 1466 2223 2271 2094 3522 3364 1967 3911 2638 2349 2523 2384 2811 2348 2338 1974 1828 1973 2262 2174 2291 2593 2675 2772 2930 3041 2852 3031 3214 3174 2042 1407 903 770
2614 2644 2484 2620 3501 3593 3878 3690 4543 3635 3902 4176 4286 2800 2792 2858 3122 2643 3450 3184 3630 3915 3579 3135 2468 2388 1372 788 867 1172 744 1157 1204 1393 1259 902 1706 1693 1666 1454 1390 902 1110 826 1379 1556 1019 1772 1837 1883 1286 2077 1556 2260 1604 2361 2430 1385 1472 2629 2253 2070 2039 2495 2328 2138 1788 1813 1910 1990 1915 2126 2234 2426 2449 2704 2792 2791 2649 2930 3205 2363 1417 995 899
2281 2276 2346 2294 2786 3328 3944 3640 4334 4439 3710 4238 3741 4191 4204 3495 3397 3765 2963 3916 3869 2927 3013 3017 2804 2430 2345 2413 2102 1271 1259 1305 1120 973 1188 1294 1328 1298 1673 1665 1575 1244 963 1758 1608 1458 1340 1804 1888 1663 1586 2317 2001 2462 1428 703 2294 1777 1340 2576 2468 2021 1817 1912 2055 1943 1794 1777 1797 1815 1828 1870 2061 2182 2208 2369 2435 2753 2432 3069 3113 2514 1678 1209 1009
2338 2251 1984 2590 2868 3297 3881 4182 4383 3494 3972 3479 2859 3104 4998 4170 3036 3078 2893 2948 2743 3175 3162 2853 2444 2291 2450 2322 2137 2024 1782 1685 1522 1194 1064 987 1288 1416 1675 1915 1877 2019 1740 1703 1364 1427 888 861 922 880 1712 2474 2702 1691 2182 1118 1604 1061 1606 2425 3168 2308 1649 1539 1595 1614 1548 1582 1588 1626 1655 1698 1631 1747 1919 2027 2016 2336 2418 2640 3029 2714 1827 1325 984
2517 2924 2312 2382 2949 3516 3973 3426 4040 3742 3397 3111 3108 3256 4553 3916 4270 4449 4075 3123 2708 3349 3579 3106 2446 2609 2570 2590 2572 2318 2209 1870 1737 1255 1331 1425 1351 1834 1841 2332 2576 2509 2300 2536 2240 2029 1368 1059 1546 1778 2098 2871 2663 2184 1628 1279 1370 885 669 962 1577 3135 1883 1470 1860 1785 1511 1508 1520 1539 1601 1615 1549 1459 1474 1496 1616 1941 2310 2546 2983 2888 1945 1320 1068
2765 2553 2961 2389 2908 3140 3216 2968 3439 3641 3474 3673 3476 3238 3700 3178 2900 3810 3531 2406 2760 3773 3393 2445 2363 1636 2075 2108 2127 2177 2260 2368 2158 1844 1757 2428 2253 1903 1817 1667 2623 3260 2588 2508 2592 2267 1663 941 1323 3067 2620 2952 2926 2938 2197 1669 1351 925 327 523 481 3510 1614 1599 1945 1936 1383 1420 1466 1526 1539 1574 1559 1524 1398 1355 1273 1446 2089 2474 2708 2898 2113 1277 1044
2082 2364 2279 3142 2792 3122 3438 2902 3365 3424 3324 3206 2796 3230 4571 3529 2976 3606 3028 2976 3141 3651 2968 2575 2066 2356 2256 2071 2109 2154 2100 1890 1728 1711 1825 2003 2270 2301 2220 1527 3133 2709 2983 3344 2599 2130 2051 1587 1445 2036 3126 3622 2909 2205 1327 1318 1958 1498 583 516 493 3314 1417 1746 1956 1957 1630 1342 1396 1421 1390 1377 1394 1372 1387 1336 1215 1190 1838 2348 2618 2834 2167 1176 926
2320 2516 2867 2881 3262 3326 2830 2920 2774 2771 3331 2719 3210 3569 4442 3753 3114 3356 3102 3532 3117 2567 2673 2471 2258 1897 1836 1972 1975 2079 2089 1903 1921 1790 1835 1940 1995 2277 2093 2189 2360 2327 3012 3047 3073 2777 2229 1479 1327 1551 1592 3302 2284 1887 1379 914 1585 1053 715 1102 1703 2145 1849 1934 2015 1860 1766 1297 1304 1276 1195 1154 1260 1308 1345 1350 1191 1274 1559 2147 2841 2807 2434 1513 1131
2422 2672 2674 2557 2612 2842 2938 2103 2381 2618 2707 2516 2588 2848 2945 3021 3116 2456 2318 3646 3873 3375 2755 2791 2436 2137 2676 2886 3003 2640 2498 2644 2390 2211 2031 1967 2148 2115 2022 2093 2322 2237 3008 2840 2878 3198 2556 1872 1388 1536 915 1950 2103 1438 1776 1140 1534 528 768 670 2030 1990 2497 1867 1834 1735 1680 1183 798 966 1041 1044 1178 1187 1286 1326 1302 1133 1469 2047 2998 2817 2470 1697 1206
2303 2629 2524 2073 2432 2386 2490 2347 1831 1810 2440 2544 1944 2574 3158 3950 3306 2714 2282 3113 4065 2829 2758 2701 2884 2735 2676 2853 3131 2701 2486 2304 2495 2512 2316 1923 1432 1459 1630 1622 2010 2358 3065 2755 3041 3122 2583 2789 2278 1534 1330 1329 1398 1847 2061 1195 471 376 336 376 362 166 1228 2206 1634 1612 1642 1083 664 721 769 898 1016 1142 1271 1318 1327 1299 1274 1311 2600 2757 2450 1920 1316
2214 2359 2591 2368 2299 2471 2199 2050 2161 2206 2750 3191 2917 2541 2683 2878 3378 3053 2731 2299 2390 2586 2280 2070 2350 2486 2134 2149 2218 2656 2783 2840 2466 2139 1946 2216 1068 1146 1144 985 1024 2832 2610 2282 2765 2868 2324 2150 2201 2452 1997 1203 1327 2134 2419 1562 472 674 559 647 418 166 71 2137 1768 1678 1410 1135 558 26 0 38 682 1028 1274 1353 1344 1328 1273 1128 1749 2350 2292 1951 1190
2223 2210 2323 2058 2170 2090 2278 2198 2568 2450 3211 3078 2881 2542 2538 2896 3198 2693 2197 2092 3045 3084 3133 3492 2922 2288 2770 2724 2740 2916 2578 2394 1910 2271 2350 2407 1944 1779 1612 1429 1557 1630 1844 2593 3403 3031 2820 2661 2763 2198 1921 2169 1898 2092 1627 1648 984 425 568 737 348 168 131 322 2251 1586 1480 948 644 228 0 0 0 78 887 1258 1348 1427 1296 1218 915 2061 1976 1728 1115
1732 1994 1984 2022 1976 2815 2843 2950 3762 3240 2902 3012 2616 2417 2613 2725 3028 3094 2891 2493 2565 2406 2459 2546 2449 2319 2374 2661 2596 2585 2638 2461 2362 2302 2327 2682 2590 2349 2100 1613 2328 2191 2776 2133 2028 1493 1560 1514 1728 1572 2359 2154 2003 1706 1979 1950 1263 368 346 983 1064 395 333 313 1805 1416 1044 683 554 340 95 0 0 0 0 294 1112 1277 1387 1330 1165 1291 1674 1555 1189
1370 1517 1740 1885 1688 3102 2689 2754 3245 2617 2746 2683 2792 2454 2102 2208 2568 2443 2609 2788 2658 2737 2981 2588 2801 2591 2735 2486 1985 2115 2149 2014 2256 2228 2228 2294 2435 2292 2164 2247 2264 1846 2031 2216 2102 1764 1461 1632 1704 1669 1594 2076 1734 2083 2402 2529 2330 1252 644 1511 960 622 896 856 1414 807 864 484 622 296 0 0 98 0 0 0 367 773 1095 1333 1335 1228 1233 1120 1204
1512 1279 1165 1159 1713 2622 2757 2624 2436 2629 2684 2598 2557 2925 2558 2101 1789 1813 1947 2326 2104 1549 1966 2278 2120 2117 2015 1728 1996 2666 2590 2340 2152 2084 2484 2340 2343 2113 2272 2238 2293 2466 3558 2650 3186 2494 1744 1738 1880 1750 2013 1837 2209 2057 2244 2452 2760 2592 1664 855 567 743 1422 1134 815 1166 540 755 601 476 190 204 415 0 0 370 304 0 0 829 1260 1342 1293 1258 1218
1543 1395 1259 1464 1511 1824 2357 2422 2234 2333 2445 2209 2691 3209 2604 1708 2499 1385 1850 2452 1702 2200 1772 1832 1615 1635 1847 2043 1830 2008 1728 2338 2106 2138 2142 2257 1949 2016 2272 2568 2339 2879 3121 3228 4165 2995 2758 2402 2203 2397 2502 2833 2301 2483 2732 2732 2906 2738 2262 1656 1480 1062 887 1527 1745 935 483 914 634 334 71 451 467 178 0 0 0 0 15 492 800 1033 1250 1280 1269
1452 1526 1363 1178 1277 1414 1652 1984 1825 2058 1884 2217 2827 1971 2537 2571 2556 2367 2576 2411 2445 2323 2439 1783 1868 1873 2199 1979 1789 2027 1893 1709 2189 3069 2789 2272 2300 2086 1582 2018 2494 3034 2648 2842 3058 3887 3347 3146 2718 2691 2924 3580 3592 3346 2650 3379 3295 2882 1841 1425 1061 1004 1101 1494 1545 1366 1394 648 1032 818 390 474 449 280 0 0 0 0 0 75 408 559 606 681 918
1401 1515 1509 1006 1090 869 1003 2082 1988 1933 1592 1802 1608 1776 2452 2887 2681 2161 2595 1990 2057 2186 1947 1604 1866 2271 2351 1679 1829 1818 1832 2725 2660 2914 3017 4018 2065 1898 2054 2096 2933 2743 2808 3167 3186 3732 3828 3535 3338 3154 3184 3409 2982 2292 2374 3304 2964 2374 1339 1282 1105 1161 739 616 1636 2116 1327 659 899 348 1077 653 326 423 54 0 0 0 0 0 0 16 18 21 16
1703 1540 1341 1458 1151 1105 1200 1551 1560 1338 1422 1808 2025 1331 1828 2364 2554 2149 2005 2466 2457 2196 1847 1607 1416 1338 1744 2660 2394 2327 2640 2323 3356 3925 3923 3660 3339 2743 2594 2631 2615 3178 3273 3216 3668 3313 3340 2936 2712 3152 2401 2108 1888 2020 2930 3116 2841 2280 2037 1871 1292 1318 1269 880 657 1075 1525 802 718 1116 548 424 601 719 20 0 0 0 0 0 0 0 0 0 0
2215 2177 1929 1926 1622 1344 1158 676 525 934 1407 1346 1091 853 958 1103 1654 1380 1469 2118 2302 2686 3389 2835 2311 1703 1825 2133 1460 1278 1975 2820 3010 2765 3109 2932 2865 3455 3578 3346 3108 3141 2609 2342 2342 3098 3077 2873 2411 2939 2303 1140 1031 1450 1736 2478 3260 2437 1412 1523 1156 1416 1739 1885 1218 1479 2192 1296 1530 926 1269 545 202 546 36 0 0 0 0 0 0 0 0 0 0
2508 2700 2350 2042 2015 1872 1243 490 583 936 825 991 1233 1068 946 781 564 1140 1194 1053 1048 1584 2198 1889 2167 2207 1870 1602 1387 1121 1307 2195 1928 2116 2775 3263 3018 3000 3569 4020 3726 3422 3241 3013 3040 3029 2963 2206 1972 2603 1863 1384 1078 1358 1946 2812 3008 2725 2639 2168 1219 1252 1620 1377 1068 965 2202 1630 1180 1110 750 802 623 299 26 0 0 0 0 0 0 0 0 0 0
2226 2381 2720 2430 2352 2504 1992 1235 1364 558 586 860 1075 990 878 706 555 565 1142 1528 1594 1783 1596 1586 1434 1550 1769 2398 2090 1790 1617 1394 1142 1028 1139 1977 2685 3745 3626 3378 3059 2600 2307 2458 2492 2948 2445 2743 2172 1793 2457 2404 1741 1536 1715 2177 2670 2530 2803 2043 1880 1790 1500 1280 1014 886 2026 1990 1307 988 488 496 322 152 13 0 0 0 0 0 0 0 0 0 0
2252 3226 3086 2693 3090 2815 2695 2190 1315 1088 1082 1084 1062 985 871 802 710 682 1542 1993 1906 1893 1880 1853 1469 1902 2976 2405 2434 2158 2140 1820 1311 1547 1842 2146 2504 2605 2405 2076 2152 2444 2732 2535 2239 2381 2848 2349 2054 2094 2879 2227 2334 2306 1920 1875 2090 2472 2827 2450 2276 1854 1726 1344 1216 1639 1591 1095 379 505 594 221 66 205 57 0 0 0 0 0 0 0 0 0 0
2839 3320 2692 3033 3076 2885 3192 1789 1444 1146 1310 1232 1220 1074 928 797 722 590 1340 1950 1840 1704 1957 1931 1856 2226 2356 2386 2566 2368 2122 2171 1332 1312 1524 1898 1999 2436 2171 1971 1879 2000 1341 1765 2602 2310 2018 2487 2520 2774 2970 2456 2210 2235 2295 2098 2066 2276 2002 1993 2110 2244 2143 1815 1342 1064 648 967 517 224 190 99 222 52 6 0 0 0 0 0 0 0 0 0 0
2823 3598 2412 3114 3137 2967 2722 1668 782 692 958 1085 1040 936 695 524 556 586 1468 2004 2041 1909 1642 1507 1913 2465 2476 2281 2124 1973 2134 1644 1124 1009 953 1058 1205 1251 1739 1448 1426 1785 1792 2335 928 826 1435 1453 1931 2985 2716 2307 1529 2611 2250 1998 1946 1534 1464 1605 1069 1385 1520 983 943 1148 716 690 438 296 88 71 113 54 19 0 0 0 0 0 0 0 0 0 0
3235 2118 3129 2735 1867 1424 1543 1590 1427 1302 1225 1013 907 781 666 588 629 708 1363 1690 1649 1772 2004 1969 1939 1915 2086 2189 2176 1888 1435 787 778 705 633 696 729 685 881 1187 1159 1292 1502 2941 944 771 972 1062 1286 1252 1164 994 987 687 808 841 1121 1348 1166 979 799 579 1343 424 286 1028 1032 1057 681 237 29 65 64 0 47 3 0 0 0 0 0 0 0 0 0
1733 2041 2293 1479 1316 1020 926 1065 1050 871 864 797 718 547 610 716 720 690 842 1061 1101 1167 1001 913 968 968 866 1415 715 357 237 263 233 195 71 0 0 0 8 78 341 608 793 889 891 1252 898 860 620 560 792 822 642 574 466 498 772 907 749 490 300 496 484 294 331 894 1253 791 804 150 178 28 12 8 26 0 0 0 0 0 0 0 0 0 0
1470 1611 1015 1154 1026 1099 1136 1192 852 617 604 557 585 584 564 527 435 326 249 182 130 121 108 105 104 109 335 341 118 111 87 28 0 0 0 0 0 0 0 0 13 57 143 4 50 199 354 412 553 558 543 437 209 18 39 66 306 452 448 341 223 1094 650 300 340 488 776 355 217 53 126 55 0 1 0 3 6 3 0 0 0 0 0 0 0
Wind_Speed
11 11 10 10 12 11 15 8 9 10 12 12 14 15 16 16 17 15 16 16 13 13 16 13 12 11 12 12 12 15 16 15 17 16 13 12 11 10 14 14 16 16 16 16 16 16 15 15 14 13 13 12 11 10 9 8 7 8 8 8 9 9 10 11 12 12 12 13 15 18 20 21 23 24 25 27 28 28 28 28 28 27 26 25 23
10 10 10 8 10 8 9 8 9 12 12 12 14 14 14 16 16 16 16 15 15 17 18 14 14 16 14 12 14 14 16 16 15 16 17 15 13 11 12 14 16 17 17 17 17 16 16 15 14 13 12 11 10 9 9 8 8 8 8 8 8 9 10 11 12 13 12 13 15 17 19 20 21 23 24 26 28 28 28 29 29 27 26 24 23
9 9 9 9 7 9 8 8 9 11 11 10 14 15 16 16 17 15 15 16 15 17 16 16 14 12 12 13 14 12 15 13 11 13 10 14 15 12 10 13 15 17 17 17 17 16 16 15 13 13 11 11 10 9 9 8 8 8 8 9 8 8 9 10 12 12 10 11 13 15 17 19 20 22 24 26 28 29 30 31 30 28 25 23 23
11 9 8 9 7 7 8 9 9 10 13 14 12 15 15 15 13 17 17 15 15 18 16 15 14 14 14 10 10 12 10 12 12 12 8 8 9 11 11 10 12 14 16 16 15 15 15 14 13 12 11 11 10 10 9 8 9 9 9 9 8 8 8 9 10 11 10 8 9 12 14 16 18 20 22 24 26 28 30 31 30 27 24 23 23
10 10 9 8 8 7 6 8 9 10 12 11 12 14 13 13 15 15 17 14 14 15 13 15 16 13 10 10 12 12 11 11 10 4 7 4 8 9 6 7 6 12 15 15 14 14 12 12 12 12 11 10 10 9 9 9 9 9 9 9 9 9 9 9 10 10 9 8 8 10 12 15 17 19 21 23 25 28 30 30 28 25 23 22 21
9 9 14 8 7 8 7 8 9 11 10 12 12 14 14 16 15 18 11 16 15 14 13 11 9 10 10 9 8 8 9 5 7 8 6 7 4 8 5 4 6 9 8 11 13 13 12 9 9 10 10 10 9 9 8 8 9 9 9 9 9 10 9 9 10 10 10 9 8 8 11 14 17 19 20 22 23 25 25 24 23 21 20 20 18
10 12 10 9 5 6 8 8 10 12 9 11 14 12 14 13 10 18 11 14 12 15 13 10 9 12 12 9 8 10 6 8 7 6 2 3 3 2 2 4 6 5 8 4 11 14 13 10 8 9 9 10 9 8 8 8 8 8 8 9 10 10 9 9 9 9 11 11 10 8 10 12 15 18 20 21 23 25 24 22 21 20 18 19 18
11 11 13 9 6 6 7 8 10 11 11 11 13 10 12 12 11 14 11 10 9 9 10 11 9 6 5 4 3 5 3 6 4 4 4 3 0 2 3 3 5 2 6 4 6 6 11 9 7 7 9 10 9 8 7 7 7 7 8 9 9 10 9 9 9 10 12 13 11 9 9 11 13 17 18 19 23 24 21 21 21 19 18 19 19
9 11 14 12 7 5 5 6 10 10 11 9 9 9 10 8 12 15 15 18 16 12 9 8 6 3 2 4 4 3 4 6 2 1 0 2 5 6 6 3 4 4 5 4 6 2 5 7 5 7 8 9 9 9 8 7 7 7 7 9 9 8 7 7 9 10 12 13 10 7 7 8 10 13 16 19 23 21 21 22 21 19 19 20 20
9 9 7 12 8 9 7 8 8 8 9 8 10 10 11 10 9 11 11 10 8 9 7 7 5 2 3 1 2 2 1 2 1 3 4 4 3 2 4 7 6 4 2 4 5 2 0 8 11 10 13 12 10 9 10 8 6 6 7 8 9 7 6 6 8 10 12 11 10 7 5 6 8 11 14 18 20 20 21 23 21 20 20 21 21
9 8 10 10 6 6 7 9 6 7 9 7 6 9 10 11 11 8 12 11 11 12 10 10 4 2 0 1 2 2 3 2 4 2 3 4 7 5 8 9 10 6 5 7 8 7 7 4 7 6 8 9 8 10 10 9 8 7 8 8 9 8 7 7 8 11 11 11 9 7 6 6 8 10 13 15 18 20 22 22 21 20 22 22 22
9 9 7 10 7 5 6 8 6 5 8 9 9 7 9 8 8 10 10 10 10 8 6 8 4 5 3 1 2 3 3 2 2 1 5 9 6 9 11 14 10 13 12 11 7 5 4 7 5 4 3 2 4 8 8 7 8 8 8 8 9 8 8 8 9 12 11 10 8 8 8 8 9 9 11 15 18 20 21 21 21 22 23 23 23
9 8 7 6 7 5 5 7 6 5 6 7 8 10 10 10 7 8 10 6 10 10 5 8 7 4 2 1 2 3 5 5 7 7 7 6 10 10 8 3 4 5 3 2 5 3 7 9 6 2 4 6 9 7 2 8 11 8 9 9 8 8 8 9 11 12 11 9 9 8 8 9 10 10 11 15 18 19 21 21 21 22 23 24 24
8 8 7 5 5 4 4 4 5 4 5 6 6 7 9 10 11 8 8 13 12 10 8 10 9 2 4 2 1 2 1 6 5 7 11 7 8 9 8 12 5 7 8 10 7 9 10 9 9 6 7 8 6 6 7 7 5 4 9 10 8 6 7 10 12 12 10 8 9 8 8 9 10 9 10 14 16 18 20 21 21 22 22 24 25
6 5 5 5 5 5 3 2 4 3 4 5 3 6 7 8 8 9 11 11 9 10 6 4 4 1 3 5 3 2 1 1 5 2 5 10 12 8 4 nan 23 19 10 8 10 10 10 10 9 8 8 7 6 6 6 5 7 8 4 6 5 4 6 9 11 11 9 9 9 8 8 9 9 8 9 12 14 17 19 20 21 21 22 24 24
4 3 8 7 5 5 5 4 3 4 5 4 5 5 6 9 9 8 9 6 9 8 11 5 7 6 2 4 4 7 3 1 2 6 8 2 9 6 7 2 8 9 8 7 12 11 8 7 13 12 10 7 7 6 7 6 4 9 5 10 4 4 5 9 10 9 8 8 8 9 9 9 10 8 7 9 12 16 18 20 20 21 21 23 24
6 7 6 6 6 6 6 5 4 2 3 2 3 4 3 4 5 6 7 8 3 7 7 7 1 4 1 3 4 5 4 10 8 1 4 8 7 9 4 2 7 11 7 8 7 10 7 6 4 9 12 8 6 5 5 6 8 9 8 10 4 3 5 9 9 8 9 9 10 10 10 9 8 7 6 7 11 15 17 19 20 19 22 22 23
6 6 7 5 4 5 5 4 1 2 5 5 4 3 3 2 5 4 4 3 6 6 3 7 3 4 4 6 5 2 4 3 2 5 3 4 3 2 3 10 7 3 3 4 7 6 1 3 14 5 8 8 6 5 6 7 10 8 8 7 3 3 6 8 8 8 9 10 10 9 9 8 7 5 4 6 10 14 16 19 19 22 22 21 22
4 5 6 5 5 5 4 4 4 2 3 2 4 6 1 3 6 6 5 5 5 5 7 3 6 5 4 1 5 4 4 4 3 3 1 5 4 6 6 11 10 8 14 9 14 15 15 13 3 5 9 8 8 8 7 7 4 9 11 6 5 4 6 7 7 8 8 8 7 7 7 7 6 4 3 5 9 14 16 18 20 23 21 21 21
4 5 3 3 3 3 4 5 5 4 3 4 5 4 9 6 5 6 5 5 5 4 6 7 8 5 3 7 5 3 5 8 4 3 5 3 5 5 4 1 6 3 11 4 6 13 10 6 10 5 8 4 7 7 8 8 8 9 9 8 6 6 7 7 8 9 8 7 6 6 7 7 5 2 3 3 8 14 16 18 22 22 21 21 22
5 1 3 2 3 3 3 4 5 3 4 4 4 4 4 5 4 2 3 3 5 4 4 6 9 5 1 4 4 5 5 4 5 6 6 3 2 1 1 6 9 3 3 2 5 1 3 5 9 10 9 6 7 8 5 6 4 9 9 11 8 8 8 9 9 9 8 7 6 6 7 6 3 2 3 3 6 14 16 18 23 21 20 21 21
4 6 3 4 4 2 5 4 4 6 4 5 7 5 3 2 4 4 5 6 4 5 5 5 6 6 6 3 2 4 4 3 4 5 3 3 4 2 3 6 5 3 4 1 2 3 4 3 7 3 6 10 11 6 8 4 4 7 11 10 11 11 10 10 9 8 8 7 7 7 6 4 3 4 4 4 5 11 16 18 22 21 20 20 20
5 5 6 6 4 5 4 6 5 2 6 4 4 3 1 8 3 2 4 5 5 6 6 7 6 4 6 5 3 4 3 4 2 3 5 4 3 4 4 3 3 3 4 7 4 2 3 4 14 12 16 5 7 4 3 8 7 11 13 15 15 14 13 12 10 8 8 8 8 6 4 4 4 5 4 3 5 10 16 18 22 21 21 20 20
7 3 6 5 3 5 5 4 4 5 3 5 5 6 4 4 3 4 4 4 5 6 7 7 7 5 5 5 6 3 2 4 3 4 4 4 3 4 4 3 2 1 2 2 4 5 3 1 10 12 3 6 6 6 5 11 11 16 15 19 17 16 15 12 10 9 8 9 8 5 5 5 4 5 4 3 5 9 16 19 23 21 21 20 20
4 4 3 4 1 4 5 4 4 5 6 6 5 5 6 7 5 5 4 4 5 4 5 7 7 6 6 5 5 2 5 4 2 3 4 2 4 4 3 4 2 1 2 6 1 5 3 3 5 5 2 6 3 6 4 11 12 14 8 21 16 17 15 12 11 9 8 10 8 5 5 5 4 4 3 2 5 9 15 19 22 22 21 21 20
1 2 2 2 2 2 2 3 3 3 3 3 5 5 4 7 5 4 6 2 4 5 5 6 5 5 5 4 4 1 4 3 4 2 4 3 3 3 2 3 3 3 2 3 2 3 3 3 6 9 6 4 5 7 9 7 17 16 9 11 19 16 14 14 11 9 9 8 7 5 5 4 3 3 3 2 5 9 15 19 22 23 21 21 20
2 2 1 2 0 1 1 1 2 1 1 3 3 2 3 3 4 4 6 3 4 3 4 5 4 3 3 3 1 4 2 3 3 0 5 2 0 1 2 3 2 2 3 1 1 1 1 3 2 2 3 3 5 7 9 6 13 11 10 11 16 16 16 15 13 11 9 7 6 5 4 4 3 2 2 3 5 8 15 21 22 24 21 21 20
3 4 3 2 2 2 3 2 3 2 2 1 1 2 1 2 2 3 3 3 3 2 3 3 3 3 2 2 1 2 2 2 2 1 2 3 2 3 2 2 2 0 2 3 3 2 1 1 5 3 4 6 4 6 6 5 11 12 12 11 13 18 17 16 14 11 10 8 6 6 4 2 2 1 1 3 5 7 13 20 23 24 22 21 20
3 4 3 5 3 2 2 2 5 2 2 2 1 2 1 2 2 2 2 3 2 2 2 3 2 3 3 2 1 1 1 0 1 2 1 3 1 1 1 1 2 2 1 2 3 5 7 5 5 7 7 7 6 7 9 9 11 10 5 8 8 15 17 17 15 12 11 10 7 6 4 4 2 2 2 2 4 6 11 18 23 24 23 20 20
2 3 5 6 5 4 3 3 4 3 3 3 4 3 4 1 2 1 2 1 2 2 2 3 2 2 2 2 1 1 1 1 1 2 3 4 1 1 1 1 6 2 2 2 1 2 2 3 6 8 8 7 9 10 6 7 19 11 6 6 7 16 20 18 15 14 12 11 9 6 5 5 5 5 4 5 5 6 11 16 22 23 23 21 19
5 4 6 6 7 7 4 3 4 3 4 2 3 3 4 2 2 3 3 4 3 2 2 3 3 2 1 2 1 1 0 2 2 1 1 3 3 2 0 1 4 1 1 2 2 2 4 4 4 6 8 10 8 9 9 5 17 10 7 6 8 23 25 18 18 16 15 14 11 8 7 7 7 6 7 7 7 7 9 14 21 22 23 21 19
6 5 5 4 6 7 7 4 4 6 5 6 4 5 5 4 3 4 5 8 5 3 1 1 0 0 1 0 0 2 1 1 1 1 1 3 4 3 3 2 7 4 3 2 3 1 2 2 1 5 7 14 12 11 11 7 16 17 9 9 9 22 21 20 21 20 19 18 15 13 11 9 9 8 8 8 8 8 8 10 19 20 22 22 20
6 7 6 4 4 6 4 6 4 7 7 7 6 6 6 6 5 4 3 5 4 4 4 2 1 1 1 1 1 0 1 1 1 1 1 3 4 2 3 5 5 6 9 4 3 2 2 2 1 2 3 2 3 5 10 9 7 9 7 8 7 5 14 21 21 21 22 22 20 18 15 13 13 12 10 11 9 8 8 9 11 18 19 21 21
5 6 7 6 6 7 6 6 7 7 10 9 5 6 6 7 5 5 7 7 6 5 4 4 4 3 3 3 2 1 2 2 1 1 1 3 6 6 3 3 3 8 8 4 3 2 3 5 4 4 2 4 2 8 3 6 6 8 8 9 7 7 nan 20 21 20 22 24 24 nan nan nan 15 15 12 13 11 11 9 8 11 13 17 19 20
8 6 7 6 7 8 7 8 9 8 9 8 8 6 7 7 6 5 4 8 9 6 7 7 6 6 6 6 5 4 4 3 2 3 4 6 2 4 4 4 3 4 6 9 9 7 6 5 6 6 7 9 7 4 3 7 4 7 10 9 9 7 10 11 22 21 21 25 25 23 nan nan nan nan 15 14 13 13 12 11 10 13 16 17 19
9 11 8 8 9 10 9 10 11 9 9 9 8 7 7 7 7 7 6 5 6 6 6 6 6 6 6 7 6 6 6 5 6 6 5 6 7 5 6 6 9 6 6 11 18 9 11 8 5 9 8 8 7 8 5 5 3 4 7 9 9 8 10 11 23 22 22 25 24 24 nan nan nan nan nan 17 16 15 15 14 13 12 15 17 17
9 12 14 11 11 13 10 10 12 10 9 9 9 7 7 8 10 9 7 8 7 8 7 8 6 7 6 6 7 8 8 7 7 7 8 7 8 8 6 6 8 8 13 13 19 13 12 9 7 8 8 10 12 9 8 8 7 5 7 12 11 10 12 7 21 22 26 26 27 25 nan nan nan nan nan nan 19 19 18 17 16 14 14 12 14
12 12 18 14 14 13 10 10 13 10 11 10 10 11 10 8 8 12 13 11 14 13 10 10 14 10 14 11 7 8 10 10 10 11 11 10 9 8 9 11 10 9 15 14 17 17 13 11 10 9 11 12 13 13 12 11 10 10 10 8 8 10 13 11 17 24 23 22 23 23 24 24 24 nan nan 21 20 nan nan 20 18 17 15 13 12
14 15 13 17 16 13 13 10 9 12 12 11 12 13 10 10 18 16 14 18 17 13 13 13 15 13 8 9 10 10 9 10 12 13 13 12 13 13 13 13 12 18 15 15 18 18 17 16 15 14 12 13 15 13 15 15 13 17 18 14 12 6 9 13 12 15 20 23 26 24 nan 27 28 23 nan nan nan nan nan 23 20 19 17 14 13
15 16 14 14 19 13 13 12 12 12 11 14 22 16 12 12 16 16 18 17 14 13 14 13 11 10 10 9 10 10 10 10 16 20 15 17 20 15 15 15 15 13 17 16 15 18 16 16 16 15 15 14 15 15 16 17 19 21 23 20 15 10 4 10 14 14 17 15 18 24 28 30 28 28 nan nan nan nan nan nan 23 20 17 16 15
19 17 17 14 15 16 16 19 14 12 14 21 22 17 18 15 16 14 15 16 14 13 12 12 12 11 11 10 10 12 12 9 14 15 16 18 17 16 16 15 16 18 18 16 15 14 14 14 14 15 13 15 16 15 15 20 20 19 20 21 16 14 11 3 15 18 15 16 19 22 25 27 28 24 nan nan nan nan nan nan nan nan nan nan nan
19 18 18 18 15 17 19 20 16 16 18 23 30 29 23 18 18 17 18 18 16 14 13 13 12 11 13 13 15 13 10 6 11 15 16 15 15 15 16 15 14 15 15 15 15 14 15 13 11 13 13 13 15 19 17 21 21 22 20 20 16 14 13 6 9 16 18 15 18 22 19 20 22 24 nan nan nan nan nan nan nan nan nan nan nan
20 20 20 20 19 17 17 22 23 25 32 31 34 34 31 28 21 19 20 20 18 17 17 17 15 13 14 14 14 14 13 14 17 17 16 17 15 15 16 16 16 16 15 13 13 15 15 15 15 17 17 15 15 17 18 18 21 22 23 22 20 17 15 14 13 15 18 17 20 19 21 21 23 25 nan nan nan nan nan nan nan nan nan nan nan
20 22 22 21 23 21 32 38 32 28 32 31 34 34 33 31 30 24 21 20 20 21 21 18 18 18 16 16 17 19 19 18 23 19 17 16 16 14 15 17 18 17 15 15 14 15 16 16 18 21 24 21 21 24 22 21 22 23 24 25 25 22 20 21 18 13 20 22 20 20 21 25 26 27 nan nan nan nan nan nan nan nan nan nan nan
21 23 23 23 23 26 35 36 29 32 34 35 31 32 32 32 31 26 23 22 22 21 20 20 21 21 22 28 27 26 28 23 25 26 24 21 18 19 17 14 12 12 15 16 17 16 18 20 20 22 26 27 26 27 28 26 26 23 25 25 26 24 25 22 19 16 17 22 21 22 21 28 27 26 nan nan nan nan nan nan nan nan nan nan nan
24 23 25 24 29 29 32 37 33 37 39 38 36 35 34 32 29 26 24 22 21 21 21 20 19 23 28 28 28 29 31 31 26 26 26 22 20 21 21 19 16 11 13 19 20 20 20 21 22 23 28 31 28 29 32 31 30 28 28 26 28 26 24 22 17 16 19 22 22 24 23 23 nan 27 nan nan nan nan nan nan nan nan nan nan nan
26 26 25 25 27 28 29 37 35 39 40 39 41 39 37 32 29 24 25 23 22 22 24 23 23 26 27 28 28 28 29 29 34 32 30 27 25 23 21 19 18 17 17 19 27 27 21 22 23 23 27 31 29 30 31 30 28 29 29 27 26 27 25 20 18 17 19 23 22 25 26 nan 27 nan nan nan nan nan nan nan nan nan nan nan nan
28 31 30 29 28 27 29 35 37 41 43 42 43 40 37 34 29 26 25 25 24 23 22 23 25 25 26 25 25 26 27 32 35 36 34 30 27 24 21 19 20 21 22 36 31 32 30 28 22 26 31 34 36 32 32 32 33 33 32 31 30 29 26 22 21 22 20 23 19 20 nan nan 24 nan nan nan nan nan nan nan nan nan nan nan nan
36 33 32 34 37 38 37 36 39 40 43 43 42 41 39 37 30 30 27 26 26 25 26 26 26 26 27 25 24 26 28 36 35 37 35 33 27 25 23 21 22 22 23 33 41 38 40 41 39 36 36 39 38 37 35 35 35 35 35 33 31 31 30 30 23 21 26 30 29 19 nan nan nan nan nan nan nan nan nan nan nan nan nan nan nan
37 38 39 42 42 42 44 42 39 41 43 44 44 42 41 39 33 30 32 30 28 28 29 30 29 29 30 42 39 36 38 36 36 37 nan nan nan nan nan nan 24 25 29 37 34 38 42 41 41 36 35 32 33 35 33 34 36 36 34 35 34 36 36 36 25 26 32 35 31 27 28 nan nan nan nan nan nan nan nan nan nan nan nan nan nan
43 45 42 41 41 43 46 47 49 47 46 46 46 42 39 41 38 38 38 36 36 35 33 33 32 31 32 40 43 43 nan nan nan nan nan nan nan nan nan nan nan nan 34 nan nan 34 35 34 35 38 37 37 37 nan nan nan 31 25 22 26 31 37 38 36 33 32 33 32 33 nan 28 nan nan nan nan nan nan nan nan nan nan nan nan nan nan
Wind_Direction
147 146 139 142 123 146 106 115 112 117 116 123 127 126 121 121 117 116 118 115 113 119 112 102 109 108 109 116 113 128 133 132 131 136 133 125 121 105 85 90 92 93 92 94 95 96 96 95 96 96 97 97 98 99 97 95 91 89 87 82 75 67 60 56 50 51 61 63 57 51 49 47 43 40 36 32 29 28 29 31 30 28 27 26 26
148 141 130 111 99 99 100 120 126 122 129 135 125 123 122 123 123 120 118 114 123 120 113 118 130 131 118 120 144 141 133 142 146 142 142 139 141 128 96 99 102 100 99 97 99 100 98 98 98 97 97 97 99 98 98 98 94 91 88 85 80 72 61 53 47 48 54 58 55 53 50 48 44 39 34 31 29 28 29 30 30 29 27 26 27
140 127 112 102 105 89 108 119 121 137 132 132 137 136 133 129 126 121 114 117 114 111 114 121 122 110 126 134 124 135 151 149 140 112 141 156 148 144 117 97 104 103 101 100 101 100 100 102 101 100 99 97 96 95 96 96 93 88 87 86 86 82 72 58 51 51 57 59 56 54 50 45 42 36 33 30 28 28 29 30 29 30 32 32 30
135 118 116 109 102 107 118 129 144 135 144 151 141 132 136 133 126 124 122 116 114 110 114 118 121 138 130 136 142 143 142 129 146 166 147 142 131 138 148 121 90 92 90 92 92 95 100 100 101 99 96 94 90 90 90 88 87 85 84 87 88 90 86 73 60 58 63 68 66 64 58 51 45 38 32 30 27 26 28 28 27 29 32 34 33
126 125 115 123 124 117 127 131 137 149 143 151 144 129 127 129 120 115 110 115 119 110 115 131 134 133 139 147 156 166 165 130 113 124 116 119 149 154 122 132 134 80 80 77 72 74 77 89 96 95 92 87 84 80 79 79 80 83 83 87 91 92 94 89 74 67 71 78 74 67 60 53 45 36 31 27 24 23 22 22 23 24 26 30 33
126 132 114 98 119 124 135 138 148 150 149 138 142 144 150 137 146 132 126 112 124 125 127 122 121 132 144 154 167 136 100 119 121 114 150 196 143 108 155 141 72 93 79 59 74 69 59 59 75 83 83 77 76 74 70 71 74 78 81 84 86 87 88 85 76 65 66 71 70 66 60 51 40 34 30 24 28 29 25 22 25 26 25 26 30
139 135 136 128 114 128 123 144 147 141 154 155 131 155 148 146 153 117 135 139 140 141 142 135 140 155 147 153 175 160 155 151 141 106 153 126 114 137 100 104 124 125 118 84 51 57 57 43 43 64 65 65 65 67 70 72 72 74 78 79 78 76 74 72 64 56 56 56 58 61 60 55 50 35 27 26 28 30 23 21 25 26 24 25 27
143 140 122 125 140 124 139 143 137 146 158 153 142 155 161 154 160 124 143 123 132 129 141 145 162 144 109 151 125 70 127 79 93 189 140 162 212 55 92 110 102 50 114 111 108 62 41 39 37 41 53 56 51 52 65 72 77 77 78 76 71 69 65 62 52 48 49 47 47 56 44 38 39 30 27 28 32 29 20 22 25 23 24 24 25
147 140 144 138 139 134 113 120 137 156 146 143 153 158 159 169 157 159 164 149 149 147 142 140 119 118 141 161 156 154 89 171 190 17 159 20 54 31 19 47 60 22 57 41 63 100 20 39 40 46 58 54 45 31 42 62 77 84 80 73 70 66 63 60 48 48 51 49 54 66 67 58 54 42 33 31 32 24 17 22 23 21 22 22 24
154 147 140 117 151 149 145 133 136 148 145 157 166 167 169 171 177 163 152 134 114 125 145 137 133 160 162 170 10 308 313 51 122 27 352 36 39 353 40 33 20 27 93 104 55 338 290 344 21 36 45 45 35 37 23 26 49 64 67 68 71 72 76 70 59 57 57 58 60 63 69 66 56 43 31 28 28 19 15 20 20 18 19 22 23
167 159 154 137 132 141 121 128 134 141 148 148 175 181 173 175 181 179 154 165 154 160 166 142 162 139 21 189 178 186 285 7 49 69 20 34 355 49 19 37 40 12 40 30 69 346 12 25 7 18 22 3 22 33 29 16 16 31 40 59 67 72 83 75 68 68 64 61 61 59 59 50 47 39 24 23 21 13 15 16 16 16 17 21 19
174 169 162 142 143 130 137 112 125 140 153 161 174 184 171 180 191 183 156 167 144 146 150 138 160 173 187 28 357 354 4 357 132 145 30 33 29 13 39 35 21 357 356 16 16 40 330 353 352 17 49 335 347 56 71 47 27 23 27 41 57 69 78 76 72 68 62 55 58 49 46 41 37 30 17 16 17 13 14 13 12 16 17 22 16
180 170 169 159 151 150 130 133 126 141 144 159 172 176 171 161 181 164 168 174 172 156 170 163 175 188 114 312 42 12 341 67 322 48 101 63 29 22 23 336 5 1 358 56 47 79 325 335 332 355 32 12 15 355 32 87 59 41 23 29 50 58 68 76 72 68 57 50 50 44 42 36 29 22 12 14 15 10 10 10 10 16 19 20 14
188 172 168 168 153 149 143 138 128 134 142 142 156 160 160 165 173 181 159 201 163 174 189 203 157 107 210 111 42 359 241 36 355 20 40 49 63 22 22 319 345 61 29 34 340 345 0 3 347 13 27 30 23 18 4 33 45 47 18 17 27 45 65 74 70 67 58 48 41 39 33 33 27 15 13 18 15 7 7 6 10 16 16 13 16
192 182 181 174 179 169 136 170 148 132 123 112 138 154 151 171 168 190 181 189 198 164 180 193 38 77 294 216 65 202 20 186 88 73 35 15 51 54 22 nan 348 34 19 42 346 359 19 28 2 4 35 25 22 16 12 360 30 65 34 355 359 38 64 72 69 65 54 43 32 27 26 29 25 13 14 21 15 4 4 4 9 16 15 14 18
184 188 205 199 178 165 177 196 172 170 148 147 122 144 176 152 189 187 184 199 185 200 151 185 151 286 154 11 302 314 57 20 27 45 72 159 178 256 89 76 333 12 352 32 337 0 0 42 342 14 11 8 10 4 13 358 37 61 334 330 346 22 61 68 64 54 44 35 25 17 21 23 20 10 11 21 16 4 2 3 8 17 17 11 19
210 210 235 194 196 186 186 189 179 145 85 111 112 67 113 176 181 191 178 179 226 200 169 133 168 161 57 298 1 338 33 13 40 57 95 298 36 26 342 148 304 28 49 8 338 5 353 22 351 357 359 3 4 14 5 7 17 29 20 349 321 15 53 58 51 43 30 22 17 14 16 20 15 5 9 19 15 6 2 0 5 12 7 10 20
215 200 217 226 197 202 182 165 202 163 140 145 153 146 84 306 114 225 142 203 170 131 180 127 137 26 40 13 21 17 19 101 83 28 39 145 24 357 26 357 55 342 207 78 319 272 128 329 43 354 322 344 337 23 7 25 13 12 16 321 332 1 48 44 37 30 22 20 18 14 18 19 11 2 8 18 12 8 3 358 1 3 4 8 21
229 205 218 212 209 199 193 155 175 163 143 133 93 106 135 143 182 184 183 197 132 104 112 126 93 122 79 38 46 73 72 64 37 46 37 50 80 99 34 27 38 352 19 24 307 331 25 37 235 339 336 0 353 12 18 23 352 356 292 311 333 17 29 22 19 14 11 17 15 12 19 23 17 2 10 17 11 11 4 358 359 1 4 8 19
209 220 201 206 193 185 177 153 149 160 141 140 130 138 195 180 147 183 174 155 114 116 126 137 116 45 166 120 122 80 55 53 80 87 76 62 47 58 94 159 86 355 61 267 5 6 329 348 344 21 348 343 5 16 34 17 9 337 337 315 344 15 4 2 6 6 4 15 9 11 25 34 33 12 21 18 15 13 4 1 356 1 3 7 16
148 168 122 165 169 149 138 139 121 154 102 143 120 205 164 181 147 149 119 96 124 158 124 121 112 146 55 108 130 107 105 105 75 34 52 77 110 88 84 123 102 63 276 29 10 17 345 359 320 333 352 329 48 36 10 9 9 314 323 336 348 356 353 354 2 2 4 14 15 22 36 45 58 66 47 28 21 12 7 1 356 0 4 7 15
94 111 102 103 102 154 108 111 144 116 198 171 156 182 136 87 109 135 168 148 138 117 118 120 115 134 119 115 113 106 94 107 109 113 149 145 110 124 95 66 46 285 244 172 129 99 0 25 313 331 333 10 45 335 33 318 344 354 327 348 348 347 353 348 355 360 6 23 25 34 49 62 81 78 66 38 19 11 6 0 356 359 4 11 19
84 77 86 82 87 92 126 119 118 172 150 141 113 109 217 112 98 179 102 108 121 131 113 90 91 105 98 74 85 103 162 123 215 163 103 115 118 119 110 100 150 152 356 32 36 317 105 351 300 17 23 322 38 330 360 331 353 322 343 357 354 346 349 344 352 357 12 27 35 43 59 78 80 82 76 39 8 7 5 1 356 0 5 13 19
108 99 87 74 85 96 91 106 129 126 112 118 147 157 141 102 126 114 90 78 112 109 124 132 118 104 94 89 59 89 91 77 4 27 83 95 116 125 109 120 139 104 190 154 281 293 40 46 324 47 321 344 13 319 329 322 329 341 8 354 352 346 339 345 343 353 13 30 39 42 61 71 76 83 82 44 1 3 7 2 357 360 6 12 20
101 96 85 89 66 103 105 110 129 132 156 157 156 144 128 125 142 106 123 112 93 107 115 118 128 144 141 134 127 88 34 78 205 98 77 115 113 84 120 157 127 89 27 56 37 284 30 40 336 65 17 318 340 308 334 324 347 331 24 343 344 340 343 339 336 343 12 33 40 35 51 60 63 70 70 34 352 357 8 4 0 359 6 12 18
112 122 128 35 61 38 82 99 126 148 129 125 129 130 156 125 123 120 99 152 133 115 98 96 98 106 114 140 128 173 114 160 124 193 165 116 103 156 245 82 121 139 237 240 196 39 321 42 340 18 11 306 332 326 324 347 330 344 355 359 340 338 344 330 328 339 4 29 36 27 41 43 44 60 61 28 347 354 3 5 3 359 6 12 15
215 238 191 212 189 278 328 67 357 76 48 89 86 62 101 114 123 133 134 116 105 111 122 108 106 114 104 95 176 116 147 111 66 3 5 69 220 130 184 158 171 218 260 356 37 111 310 17 195 8 319 335 323 324 332 349 312 331 2 21 334 347 333 323 325 342 358 12 29 26 28 32 39 41 49 15 353 1 360 4 5 360 3 9 14
243 253 272 263 272 292 302 331 285 336 3 16 77 117 38 101 112 115 103 113 106 86 80 96 92 92 89 57 76 136 124 129 183 71 167 184 207 207 149 205 222 6 331 319 352 15 291 53 349 354 20 331 338 324 305 23 338 325 15 13 341 337 324 320 325 342 353 358 13 25 9 8 20 34 24 17 353 357 3 2 3 359 360 5 8
262 278 275 282 268 272 270 306 306 289 291 302 331 345 351 76 79 53 80 97 112 120 119 94 83 75 57 76 46 60 57 280 120 156 222 269 277 143 116 52 326 326 17 345 350 355 3 15 323 341 6 350 341 319 339 353 340 334 1 358 352 325 321 316 326 336 343 343 353 358 344 318 306 298 298 322 334 345 358 2 0 358 355 359 3
231 263 286 290 282 271 257 244 267 282 280 296 314 321 320 330 10 350 59 122 130 109 97 109 105 81 62 62 79 104 199 181 152 192 222 248 191 2 5 311 275 2 337 298 2 340 358 4 340 344 351 342 346 331 318 18 321 344 350 346 356 317 314 312 322 329 329 326 329 335 320 306 295 293 291 293 307 334 344 358 356 354 352 354 359
268 234 260 282 284 287 274 287 289 286 282 290 275 286 305 310 327 338 339 348 354 15 48 44 49 54 75 71 35 32 132 175 189 201 281 317 343 310 355 289 259 136 291 296 41 333 349 38 25 10 356 339 342 339 322 330 324 332 329 330 327 320 319 317 317 321 321 313 309 309 301 293 288 294 290 291 297 310 330 349 351 350 348 350 355
268 274 264 257 279 291 302 309 315 311 318 308 315 310 313 306 299 319 299 298 323 329 352 74 125 196 244 286 342 19 18 141 168 129 7 353 356 359 347 316 327 15 274 317 34 17 95 147 162 83 326 332 359 331 305 341 320 324 314 341 316 327 320 319 318 318 313 307 303 298 292 287 286 283 278 278 288 300 311 331 346 348 345 345 348
260 276 278 272 262 264 265 285 297 293 291 278 293 285 289 295 299 284 271 295 302 316 320 336 346 292 319 311 325 353 58 86 92 84 132 214 184 166 13 342 339 324 309 0 5 3 14 6 285 230 186 284 282 302 313 326 317 300 286 303 305 340 322 318 316 316 310 309 306 300 295 290 284 277 274 271 273 287 303 315 336 343 345 343 341
262 266 278 279 275 263 254 244 240 252 278 287 284 289 292 299 302 301 314 325 316 311 305 304 320 308 295 311 307 311 312 1 5 141 164 336 338 359 42 310 269 311 325 296 294 265 178 225 237 253 289 233 281 268 275 267 288 309 309 295 315 314 nan 316 312 312 313 311 309 nan nan nan 291 281 279 269 271 275 286 302 320 332 340 341 331
276 261 270 271 272 276 255 251 265 265 268 281 290 292 291 293 297 292 284 297 311 315 316 319 317 318 317 309 309 292 288 286 275 255 202 227 228 214 222 219 202 200 244 287 294 271 253 245 242 241 232 235 235 244 293 282 319 330 321 311 294 304 297 299 309 308 318 312 309 311 nan nan nan nan 284 279 273 274 277 286 299 321 332 331 331
273 280 270 269 275 273 274 269 269 270 277 281 281 291 300 290 284 294 284 271 282 290 293 295 298 300 306 304 295 278 267 254 249 242 238 223 222 230 226 242 247 242 246 257 255 270 278 292 316 297 298 298 303 310 320 298 308 321 311 308 313 313 301 304 311 313 321 316 314 314 nan nan nan nan nan 290 288 280 280 281 283 289 316 328 333
266 276 279 269 269 279 282 288 281 279 280 277 275 268 269 290 292 284 288 270 281 274 266 252 257 255 269 280 281 280 277 272 270 267 263 254 244 231 244 257 276 283 282 278 295 305 306 313 300 290 292 293 287 283 281 282 292 302 304 315 314 319 310 320 310 312 315 318 316 316 nan nan nan nan nan nan 290 286 281 279 278 283 287 301 321
268 268 278 281 273 278 281 285 281 286 276 274 278 274 257 245 259 245 250 272 256 242 243 246 242 227 229 213 226 275 285 281 276 272 268 264 265 261 243 242 247 254 266 270 281 290 292 295 282 267 270 271 276 284 284 284 290 294 290 290 298 306 314 321 312 319 321 320 319 313 313 310 303 nan nan 293 290 nan nan 278 277 277 279 289 296
274 272 273 280 284 283 285 282 285 281 283 272 261 253 253 254 247 256 251 250 263 279 276 279 276 272 274 261 244 237 239 264 273 274 269 264 259 249 251 248 253 259 269 279 281 285 289 287 291 290 280 286 288 281 284 286 290 283 279 276 268 283 312 317 320 315 320 322 313 306 nan 296 300 301 nan nan nan nan nan 275 275 274 275 278 282
276 279 279 281 280 281 278 283 283 280 280 280 261 252 249 245 248 250 259 255 250 256 258 256 262 268 265 273 272 257 254 255 272 264 268 270 268 264 258 255 254 262 257 256 261 275 278 284 284 282 284 278 282 289 286 286 284 287 289 293 278 259 273 320 320 311 301 304 309 305 298 299 303 304 nan nan nan nan nan nan 274 266 265 269 276
274 279 283 282 285 283 279 265 252 257 266 267 277 273 257 256 258 249 261 265 262 259 263 262 274 284 287 279 279 276 273 274 273 277 267 259 259 259 261 260 257 261 270 274 280 272 273 274 276 281 281 277 277 279 284 287 285 289 292 291 284 268 258 313 322 316 303 303 305 306 312 315 313 319 nan nan nan nan nan nan nan nan nan nan nan
274 275 277 280 277 279 279 280 276 274 272 268 262 267 268 266 270 264 256 255 258 256 255 259 263 279 282 281 288 301 294 324 289 268 265 268 274 271 268 265 261 259 264 269 269 266 263 265 268 277 278 280 280 294 300 295 290 287 286 288 280 274 268 273 298 305 301 294 290 292 297 295 298 292 nan nan nan nan nan nan nan nan nan nan nan
272 273 273 273 276 271 264 258 249 250 257 256 250 255 255 247 251 264 271 275 278 277 268 264 268 263 265 263 263 270 285 289 275 264 265 273 282 291 289 286 280 271 263 263 270 283 288 291 291 290 288 285 287 286 287 285 286 287 286 282 282 282 295 291 278 286 297 297 294 293 297 292 292 294 nan nan nan nan nan nan nan nan nan nan nan
268 268 272 273 266 264 257 256 259 255 256 246 248 250 250 250 246 248 254 258 262 273 279 275 273 275 271 269 265 264 263 283 284 281 280 284 289 293 289 286 291 298 295 283 282 290 297 298 298 295 293 299 297 296 293 289 290 291 291 288 287 287 281 282 284 287 293 299 294 293 298 298 293 293 nan nan nan nan nan nan nan nan nan nan nan
265 268 268 266 269 267 264 266 267 270 267 254 252 252 252 250 246 244 253 251 252 251 250 252 252 250 250 252 248 249 257 255 244 240 236 240 251 262 264 274 285 297 301 303 305 301 290 294 293 294 300 301 301 303 303 295 294 292 289 290 290 290 289 288 290 292 298 301 301 300 297 297 297 297 nan nan nan nan nan nan nan nan nan nan nan
259 266 267 273 267 261 262 269 265 262 260 252 253 254 251 247 246 249 255 253 255 253 252 250 249 251 257 256 252 253 256 266 270 261 255 253 258 261 261 264 262 266 301 306 302 306 306 295 292 293 295 297 298 298 301 302 301 299 295 290 289 290 291 292 294 297 303 305 305 300 298 300 nan 295 nan nan nan nan nan nan nan nan nan nan nan
268 269 265 268 271 270 269 266 266 261 256 249 251 252 251 248 246 250 256 255 252 249 249 246 247 248 247 250 250 250 253 252 255 249 250 243 241 247 253 256 260 261 259 262 270 273 281 291 293 299 295 293 293 296 298 301 305 300 296 289 283 288 288 284 289 298 294 300 300 296 295 nan 293 nan nan nan nan nan nan nan nan nan nan nan nan
268 263 263 261 264 267 262 265 263 259 256 252 252 253 252 250 247 257 255 252 250 247 245 243 243 244 247 247 247 247 247 253 250 247 246 244 244 245 247 251 255 259 262 274 277 277 276 277 290 295 297 295 291 293 296 300 299 295 290 284 280 284 285 282 277 267 272 271 272 285 nan nan 290 nan nan nan nan nan nan nan nan nan nan nan nan
265 267 266 262 253 253 255 261 259 258 257 253 250 248 247 245 248 253 252 250 245 243 243 244 246 247 249 249 249 249 247 254 248 248 246 245 249 249 251 251 254 258 262 270 270 271 272 273 272 274 283 291 295 293 296 299 300 296 289 285 282 279 281 279 275 273 271 274 273 270 nan nan nan nan nan nan nan nan nan nan nan nan nan nan nan
255 259 258 263 262 259 259 259 258 257 255 250 247 244 242 241 243 250 250 248 245 244 245 245 247 249 247 250 253 253 255 254 252 250 nan nan nan nan nan nan 256 260 264 263 266 270 279 283 284 286 289 291 295 296 295 299 303 298 296 293 288 276 271 271 272 276 271 268 271 265 269 nan nan nan nan nan nan nan nan nan nan nan nan nan nan
253 259 258 259 259 259 259 258 259 258 256 253 249 247 243 241 243 250 250 251 250 247 246 248 249 251 255 258 256 259 nan nan nan nan nan nan nan nan nan nan nan nan 266 nan nan 262 268 277 283 287 289 292 292 nan nan nan 297 294 294 293 285 280 274 267 264 265 266 266 268 nan 271 nan nan nan nan nan nan nan nan nan nan nan nan nan nan